STARLINK-35488 (66254 NORAD) Tracking and Keplerian Element Data

This shows tracking and keplerian element data for the satellite.

Feedback or suggestion? Click here.




ElementValue
Catalog66254
NameSTARLINK-35488
Epoch Orbit906
Epoch Day354.13608938
Epoch Year2025
RAAN294.3228
Inclination53.1613
Eccentricity0.000111
Argument of Perigee73.9503
Mean Anonmoly286.1624
Mean Motion15.39622242
Decay Rate0.00029058
L11 66254U 25245W 25354.13608938 .00029058 00000+0 73362-3 0 9995
L22 66254 53.1613 294.3228 0001110 73.9503 286.1624 15.39622242 9064



Live tracking and technical data element details for STARLINK-35488 (NORAD 66254). STARLINK-35488 can be tracked NOW for your location showing map with azimuth and elevation plus other details from your city location.







IsCatalogInMostPopularTable: catalog: 66254, numindb: 3
Update: records affected: 1



GetName: 66254 STARLINK-35488

Hit Count: updated at: Sun, 08 Feb 2026 07:59:58 GMT